STARLINK-2226, 48010

Orbit data source: Space-Track

STARLINK-2226, 48010 is a payload satellite owned by SpaceX/Seattle (US) in LEO that was launched on Wed, 24 Mar 2021 UTC via an FALCON 9 launch vehicle from the Air Force Eastern Test Range (AFETR). Payload-class satellites include a variety of spacecraft equipped with specific instruments for various scientific and technological missions. These include communications satellites like Starlink; space stations such as the ISS; scientific satellites like the Hubble; Earth observation satellites from companies like Planet Labs, Umbra, and HawkEye 360; GPS; miniature CubeSats for education and research; and military/defense satellites.

Loading next visibility...
Identifier
48010, 2021-024AK
Orbit
LEO
Country
Flag of USUS
Related business
Manufacturer
SpaceX/Seattle
Mission
Operational Commercial Communications
Bus & Motor
STARLINK, Unknown motor
Mass
260 kg wet, ~248 kg dry
Launch date (UTC)
2021-03-24 (5 years ago)
Launch vehicle
FALCON 9
Launch site
Air Force Eastern Test Range (AFETR)
Object type
Payload
Rocket body
Debris
Shape & HBR
Box + 1 Pan, 10.1 m
Radar Cross Section
13.562 m², Large (>1 m²)

Expand to show TLE details & history
Last TLE update: 13 hours ago

TLE from 13 hours ago
0 STARLINK-2226
1 48010U 21024AK  26130.05033337 -.00000485  00000-0 -38717-5 0  9998
2 48010  53.1590  47.3430 0001255  89.3682 270.7464 15.31700721283963
Epoch: 2026-05-10T01:12Z
TLE epoch observation values (Epoch: 2026-05-10T01:12:28.803Z)
Latitude
0.00006°
Longitude
161.36405°
Altitude
471.627 km
Speed
7.631 km/s
True Right ascension
03h 09m 22s
True Declination
0° 00' 00"
Sunlit
Object was in daylight at epoch
Visualization orbit readout
Latitude
Unknown
Longitude
Unknown
Altitude
Unknown
Speed
Unknown
Apparent Right ascension
Unknown
Apparent Declination
Unknown
Sunlit
N/A
Visualization observer readout
Local Sidereal Time
22:11:39
Azimuth
Unknown
Elevation
Unknown
Doppler factor
Unknown
Orbital elements
Apogee altitude
471.854 km
Perigee altitude
470.135 km
Semi-major axis
6,849.132 km
Eccentricity
0.00013
Inclination
53.159°
RAAN
47.343°
Arg. of periapsis
89.3682°
True anomaly
270.73202°
Mean anomaly
270.7464°
Eccentric anomaly
270.73921°
Mean motion
3.82904 °/min
Orbital period
94.02 mins
BSTAR
-0.0000038717
Loading maneuver chart data...
Computing Atmospheric mass density...

Documentation

Showing up to 5 results
|